Flag for U.S.A. Weather past 2 weeks in Bakersfield, California, U.S.A.

Now
80 °F

Clear.


Feels Like: 80 °F
Forecast: 74 / 98 °F
Wind: 5 mph from North

Location: Meadows Field

Current Time: Sep 16, 2014 at 2:36:52 AM

Latest Report: Sep 16, 2014 at 1:54 AM


Visibility: 10 mi

Pressure: 29.85 "Hg

Humidity: 36%

Dew point: 51 °F

Location of BakersfieldLocation

Historic Weather in Bakersfield — Graph

°F

Bakersfield temperature yesterday

Maximum temperature yesterday: 101 °F (at 4:54 PM)
Minimum temperature yesterday: 75 °F (at 6:54 AM)
Average temperature yesterday: 88 °F

Past Weeks' High & Low Weather Summary

 TemperatureHumidityPressure
High105 °F (Sep 13, 3:54 PM)48% (Sep 8, 4:54 AM)29.95 "Hg (Sep 8, 4:54 AM)
Low66 °F (Sep 10, 5:54 AM)10% (Sep 5, 11:54 PM)29.59 "Hg (Sep 3, 6:54 PM)
Average85 °F25%29.77 "Hg
* Reported Sep 1 12:54 AM — Sep 16 12:54 AM, Bakersfield, Weather by CustomWeather, © 2014

Note: Actual official high and low records may vary slightly from our data, if they occured in-between our weather recording intervals... More about our weather records

Advertising

Bakersfield weather history for previous 24 hours

 ConditionsComfort  
Time TempWeatherWind HumidityBarometerVisibility
12:54 AM
Sep 16
80 °FClear.8 mph35%29.84 "Hg10 mi
11:54 PM
Sep 15
83 °FClear.9 mph28%29.83 "Hg10 mi
10:54 PM87 °FClear.8 mph23%29.82 "Hg10 mi
9:54 PM89 °FClear.10 mph24%29.81 "Hg10 mi
8:54 PM92 °FClear.No wind28%29.79 "Hg10 mi
7:54 PM95 °FSunny.No wind21%29.76 "Hg10 mi
6:54 PM98 °FSunny.5 mph19%29.75 "Hg10 mi
5:54 PM100 °FSunny.7 mph18%29.74 "Hg10 mi
4:54 PM101 °FSunny.10 mph17%29.74 "Hg10 mi
3:54 PM100 °FSunny.9 mph19%29.74 "Hg10 mi
2:54 PM100 °FSunny.8 mph19%29.76 "Hg10 mi
1:54 PM97 °FSunny.5 mph21%29.78 "Hg10 mi
12:54 PM97 °FSunny.5 mph22%29.80 "Hg10 mi
11:54 AM91 °FSunny.3 mph28%29.83 "Hg10 mi
10:54 AM88 °FSunny.6 mph27%29.84 "Hg10 mi
9:54 AM86 °FSunny.5 mph29%29.84 "Hg10 mi
8:54 AM82 °FSunny.5 mph34%29.83 "Hg10 mi
7:54 AM78 °FSunny.6 mph39%29.82 "Hg10 mi
6:54 AM75 °FClear.6 mph45%29.81 "Hg10 mi
5:54 AM77 °FClear.5 mph44%29.80 "Hg10 mi
4:54 AM78 °FClear.No wind37%29.79 "Hg10 mi
3:54 AM78 °FClear.No wind40%29.78 "Hg10 mi
2:54 AM79 °FClear.No wind32%29.78 "Hg10 mi
Weather by CustomWeather, © 2014

See weather overviewHow to use our weather pages